Amsterdam, Netherlands

4:55 AM CEST on October 19, 2017 (GMT +0200)
Schiphol

Weather History for EHAM - November, 2013

Change the Weather History Date:

Saturday, November 16, 2013

  Actual Average Record
Temperature  
Mean Temperature 40 °F -  
Max Temperature 47 °F 45 °F 60 °F (2006)
Min Temperature 34 °F 36 °F 30 °F (1999)
Degree Days  
Heating Degree Days 24    
Moisture  
Dew Point 41 °F    
Average Humidity 98    
Maximum Humidity 100    
Minimum Humidity 92    
Precipitation  
Precipitation 0.00 in - - ()
Sea Level Pressure  
Sea Level Pressure 30.42 in    
Wind  
Wind Speed 5 mph ()    
Max Wind Speed 11 mph    
Max Gust Speed -    
Visibility 2.2 miles    
Events Fog    
Averages and records for this station are not official NWS values.
T = Trace of Precipitation, MM = Missing Value Source: Averaged Metar Reports

Daily Weather History Graph

Daily Weather History Graph

Search for Another Location

Airport or City:

Trip Planner

Search our weather history database for the weather conditions in past years. The results will help you decide how hot, cold, wet, or windy it might be!

Date:

Astronomy

Nov. 16, 2013 Rise Set
Actual Time 8:03 AM CET 4:47 PM CET
Civil Twilight 7:25 AM CET 5:24 PM CET
Nautical Twilight 6:44 AM CET 6:06 PM CET
Astronomical Twilight 6:04 AM CET 6:46 PM CET
Moon 4:18 PM CET (11/16) 6:36 AM CET (11/16)
Length of Visible Light 9h 59m
Length of Day
8h 43m
Waxing Gibbous, 99% of the Moon is Illuminated
Nov 16
Waxing Gibbous
Nov 17
Full
Nov 25
Last Quarter
Dec 3
New
Dec 9
First Quarter

Hourly Weather History & Observations

Time (CET) Temp. Windchill Dew Point Humidity Pressure Visibility Wind Dir Wind Speed Gust Speed Precip Events Conditions
12:25 AM 37.4 °F - 37.4 °F 100% 30.48 in 6.2 mi SE 1.2 mph - N/A Fog Shallow Fog
12:55 AM 37.4 °F - 37.4 °F 100% 30.48 in 6.2 mi SE 1.2 mph - N/A Fog Shallow Fog
1:00 AM 37 °F - 37 °F 100% 30.49 in 0 mi SE 2.2 mph - - Fog Fog
1:25 AM 37.4 °F - 37.4 °F 100% 30.48 in 6.2 mi SSW 2.3 mph - N/A Fog Shallow Fog
1:55 AM 37.4 °F - 37.4 °F 100% 30.48 in 6.2 mi WSW 2.3 mph - N/A Fog Shallow Fog
2:25 AM 39.2 °F - 37.4 °F 93% 30.45 in 6.2 mi West 1.2 mph - N/A Fog Shallow Fog
2:55 AM 37.4 °F - 37.4 °F 100% 30.48 in 6.2 mi ESE 1.2 mph - N/A Fog Shallow Fog
3:25 AM 37.4 °F - 37.4 °F 100% 30.45 in 5.0 mi South 2.3 mph - N/A Fog Fog
3:55 AM 37.4 °F - 37.4 °F 100% 30.45 in 5.0 mi SSE 2.3 mph - N/A Fog Shallow Fog
4:00 AM 37 °F - 37 °F 98% 30.47 in 6 mi SSE 2.2 mph - -   Mist
4:25 AM 35.6 °F 31.7 °F 35.6 °F 100% 30.45 in 5.0 mi South 4.6 mph - N/A Fog Shallow Fog
4:55 AM 35.6 °F 31.7 °F 35.6 °F 100% 30.45 in 3.7 mi South 4.6 mph - N/A Fog Patches of Fog
5:25 AM 35.6 °F 32.8 °F 35.6 °F 100% 30.45 in 2.2 mi SSE 3.5 mph - N/A   Scattered Clouds
5:55 AM 35.6 °F 31.7 °F 35.6 °F 100% 30.45 in 0.3 mi SSE 4.6 mph - N/A Fog Fog
6:25 AM 35.6 °F 32.8 °F 35.6 °F 100% 30.45 in 0.2 mi SSE 3.5 mph - N/A Fog Fog
6:55 AM 35.6 °F 32.8 °F 35.6 °F 100% 30.45 in 0.2 mi SSE 3.5 mph - N/A Fog Fog
7:00 AM 36 °F - 36 °F 99% 30.47 in 0 mi SSE 4.5 mph - - Fog Fog
7:25 AM 35.6 °F 30.7 °F 35.6 °F 100% 30.45 in 0.2 mi SSE 5.8 mph - N/A Fog Fog
7:55 AM 35.6 °F 31.7 °F 35.6 °F 100% 30.45 in 0.2 mi South 4.6 mph - N/A Fog Fog
8:25 AM 35.6 °F 29.9 °F 35.6 °F 100% 30.45 in 0.2 mi South 6.9 mph - N/A Fog Fog
8:55 AM 37.4 °F 32.8 °F 37.4 °F 100% 30.48 in 0.2 mi South 5.8 mph - N/A Fog Fog
9:25 AM 37.4 °F 32.1 °F 37.4 °F 100% 30.48 in 0.2 mi South 6.9 mph - N/A Fog Fog
9:55 AM 39.2 °F 35.0 °F 39.2 °F 100% 30.48 in 0.5 mi South 5.8 mph - N/A Fog Patches of Fog
10:00 AM 39 °F - 39 °F 98% 30.49 in 0 mi South 6.7 mph - - Fog Fog
10:25 AM 39.2 °F 35.0 °F 39.2 °F 100% 30.48 in - South 5.8 mph - N/A   Mostly Cloudy
10:55 AM 41.0 °F 35.8 °F 41.0 °F 100% 30.45 in 2.2 mi South 8.1 mph - N/A   Mostly Cloudy
11:25 AM 42.8 °F 38.0 °F 42.8 °F 100% 30.45 in 2.2 mi South 8.1 mph - N/A   Overcast
11:55 AM 44.6 °F 39.7 °F 44.6 °F 100% 30.45 in 2.2 mi South 9.2 mph - N/A   Mostly Cloudy
12:25 PM 46.4 °F 41.9 °F 44.6 °F 93% 30.45 in 2.2 mi South 9.2 mph - N/A   Mostly Cloudy
12:55 PM 46.4 °F 41.5 °F 44.6 °F 93% 30.42 in 2.5 mi South 10.4 mph - N/A   Mostly Cloudy
1:00 PM 47 °F - 46 °F 92% 30.45 in 2 mi South 11.2 mph - -   Mist
1:25 PM 46.4 °F 41.5 °F 46.4 °F 100% 30.42 in 2.5 mi SSW 10.4 mph - N/A   Mostly Cloudy
1:55 PM 46.4 °F 41.5 °F 44.6 °F 93% 30.42 in - SSW 10.4 mph - N/A   Mostly Cloudy
2:25 PM 46.4 °F 41.5 °F 44.6 °F 93% 30.42 in 1.9 mi SSW 10.4 mph - N/A   Mostly Cloudy
2:55 PM 46.4 °F 41.5 °F 44.6 °F 93% 30.39 in 2.2 mi SSW 10.4 mph - N/A   Mostly Cloudy
3:25 PM 46.4 °F 41.9 °F 44.6 °F 93% 30.39 in 2.2 mi SSW 9.2 mph - N/A   Mostly Cloudy
3:55 PM 44.6 °F 39.7 °F 44.6 °F 100% 30.39 in 2.2 mi SSW 9.2 mph - N/A   Mostly Cloudy
4:00 PM 45 °F - 44 °F 94% 30.41 in 2 mi SSW 8.9 mph - -   Mist
4:25 PM 44.6 °F 39.2 °F 42.8 °F 93% 30.39 in - SSW 10.4 mph - N/A   Mostly Cloudy
4:55 PM 44.6 °F 40.2 °F 44.6 °F 100% 30.39 in 1.7 mi SSW 8.1 mph - N/A   Mostly Cloudy
5:25 PM 44.6 °F 39.7 °F 42.8 °F 93% 30.39 in 1.6 mi South 9.2 mph - N/A   Mostly Cloudy
5:55 PM 44.6 °F 40.2 °F 42.8 °F 93% 30.39 in 1.6 mi South 8.1 mph - N/A   Mostly Cloudy
6:25 PM 44.6 °F 40.7 °F 42.8 °F 93% 30.39 in 1.6 mi SSW 6.9 mph - N/A   Mostly Cloudy
6:55 PM 44.6 °F 40.7 °F 42.8 °F 93% 30.39 in 1.5 mi South 6.9 mph - N/A   Mostly Cloudy
7:00 PM 44 °F - 44 °F 97% 30.39 in 1 mi South 6.7 mph - -   Mist
7:25 PM 44.6 °F 40.2 °F 44.6 °F 100% 30.36 in 1.5 mi SSW 8.1 mph - N/A   Mostly Cloudy
7:55 PM 44.6 °F 41.4 °F 44.6 °F 100% 30.36 in 1.4 mi South 5.8 mph - N/A   Mostly Cloudy
8:25 PM 44.6 °F 40.7 °F 44.6 °F 100% 30.36 in 1.5 mi South 6.9 mph - N/A   Mostly Cloudy
8:55 PM 44.6 °F 40.7 °F 44.6 °F 100% 30.36 in 1.6 mi South 6.9 mph - N/A   Mostly Cloudy
9:25 PM 44.6 °F 41.4 °F 44.6 °F 100% 30.36 in 1.6 mi South 5.8 mph - N/A   Mostly Cloudy
9:55 PM 44.6 °F 41.4 °F 44.6 °F 100% 30.36 in 1.6 mi South 5.8 mph - N/A   Mostly Cloudy
10:00 PM 44 °F - 44 °F 99% 30.36 in 1 mi South 4.5 mph - -   Mist
10:25 PM 44.6 °F 41.4 °F 42.8 °F 93% 30.36 in 1.5 mi SSE 5.8 mph - N/A   Mostly Cloudy
10:55 PM 44.6 °F 40.2 °F 42.8 °F 93% 30.33 in 1.4 mi South 8.1 mph - N/A   Mostly Cloudy
11:25 PM 44.6 °F 40.7 °F 42.8 °F 93% 30.33 in 1.2 mi South 6.9 mph - N/A   Mostly Cloudy
11:55 PM 42.8 °F 39.3 °F 42.8 °F 100% 30.33 in 1.2 mi South 5.8 mph - N/A   Overcast